Retour au catalogue

TITAN 3C TRANSTAGE DEB

LostMEO
NORAD 53647·DEBRIS·🇺🇸 United States

Lancé May 30, 1974 depuis Cape Canaveral Space Force Station

Loading…

Prochains Passages (prochaines 24 heures)

TLE

PériméSource: Space-Track

Époque: Sep 29, 2024, 15:10 UTC

1 53647U 74039D   24273.63213551  .00000067  00000-0  00000-0 0  9995
2 53647   4.3498 272.7542 0236171 232.5063 124.8340  1.00609122    19

Suivez TITAN 3C TRANSTAGE DEB en temps réel avec AllMySat

Download on the App Store